Вернуться в каталог

USA 15

АктивенВоенныеLEO
NORAD 16591·PAYLOAD·🇺🇸 United States

Запущен Feb 9, 1986 с Vandenberg Space Force Base

Loading…

Ближайшие Пролёты (ближайшие 24 часа)

TLE

СвежийSource: Space-Track

Эпоха: Sep 14, 2026, 05:57 UTC

1 16591U 86014A   26257.24792196  .00008987  00000-0  48903-3 0  9992
2 16591  63.3057 352.8432 0647911 114.6421 252.3528 14.17184696120548

Отслеживайте USA 15 в реальном времени с AllMySat

Download on the App Store